www.pogodaiklimat.ru

Погода и климат >> Архив погоды >> Россия >> Калмыкия >> Юста


ПОГОДА в Юсте

  • Прогноз погоды в Юсте
  • Монитор погоды в Юсте
  • Климат города

АРХИВ ПОГОДЫ в Юсте

Время (UTC), дата Ветер
(напр.,м/с)
 
Видим.   Явления Облачность Т
(С)
Тd
(С)
f
(%)
Тe
(С)
Тes
(С)
Комфортность P
(гПа)
Po
(гПа)
Тmin
(С)
Tmax
(С)
R
(мм)
S
(см)
03 16.03 В 3 10 км 9/0
[Ac As]
+2.1 -3.3 67 -2 -2 1015.3 1014.9 +1.6
06 16.03 ЮВ 5 20 км 9/0
[Ac As]
+7.7 -1.2 53 +4 +5 1015.1 1014.8
09 16.03 В 5 20 км 9/0
[Ac As]
+8.7 -0.9 51 +6 +8 1014.4 1014.0
12 16.03 В 4 20 км 9/0
[Ac As]
+8.9 +0.4 55 +6 +8 1012.9 1012.5
15 16.03 В 3 20 км 9/0
[Ac As]
+7.5 +0.4 61 +5 +5 1013.2 1012.8 +9.6
18 16.03 ЮВ 2 10 км ясно +4.6 -1.3 66 +2 +2 1013.4 1013.0
21 16.03 ЮВ 2 10 км 3/0
[Ci fib]
+1.5 -1.7 79 -2 -2 1013.2 1012.8
00 17.03 В 1 10 км 3/0
[Ci fib]
-0.6 -2.6 86 -3 -3 1012.9 1012.5
03 17.03 СЗ 2 10 км ясно 0.0 -0.5 96 -4 -4 1013.8 1013.4 -0.7
06 17.03 З 2 500 м туман ?/? +2.7 +2.7 100 -1 -1 1014.6 1014.2
09 17.03 СЗ 4 20 км {туман} 9/0
[Cs]
+8.6 +2.2 64 +6 +11 1014.7 1014.3
12 17.03 СЗ 4 20 км {туман} 9/5 600 м
[Sc Cs]
+11.2 +0.9 49 +9 +11 1014.7 1014.3
15 17.03 С 2 20 км 8/8 600 м
[Sc]
+9.2 +1.8 60 +8 +8 1015.6 1015.2 +11.3
18 17.03 ЮВ 3 10 км ясно +3.7 +1.0 83 -0 -0 1016.0 1015.6
21 17.03 ЮВ 3 10 км ясно +0.8 +0.1 95 -4 -4 1015.9 1015.5
00 18.03 ЮВ 2 10 км ясно -1.2 -1.6 97 -5 -5 1016.1 1015.7
03 18.03 В 2 4000 м дымка ясно -2.3 -2.5 99 -7 -7 1016.2 1015.8 -2.3
06 18.03 ЮВ 2 500 м туман [диам. гололёда 1 мм] ?/? +0.5 +0.5 100 -3 -3 1016.8 1016.4 -2.3
09 18.03 В 3 20 км {туман} 4/0
[Ci fib]
+8.7 +2.9 67 +6 +14 1015.9 1015.5
12 18.03 В 4 20 км {туман} 8/0
[Ci fib]
+10.9 +2.4 56 +9 +12 1014.3 1013.9
15 18.03 В 4 20 км 8/0
[Ci fib]
+8.2 +2.2 66 +5 +5 1014.5 1014.1 +11.1
18 18.03 ЮВ 3 10 км 3/0
[Ci fib]
+3.2 +1.0 85 -1 -1 1015.2 1014.8
21 18.03 ЮВ 2 10 км 9/0
[Ci fib]
+1.8 +1.0 94 -2 -2 1015.0 1014.6
00 19.03 ЮВ 1 10 км 9/0
[Ac trans]
+3.3 +2.3 93 +2 +2 1014.5 1014.1
03 19.03 Ю 2 10 км 9/9 300 м
[Sc]
+3.7 +1.2 84 +1 +1 1014.9 1014.5 +1.6
06 19.03 ЮВ 3 20 км 9/9 600 м
[Sc]
+4.5 +1.1 79 +1 +2 1015.5 1015.1
09 19.03 ЮВ 3 20 км 8/8 600 м
[Sc]
+5.7 +0.7 70 +3 +4 1014.5 1014.1
12 19.03 20 км н/о +7.3 +0.7 63 +5 +7 1013.5 1013.2
15 19.03 В 3 20 км 8/0
[Ac trans Ci fib]
+4.4 +0.8 77 +1 +1 1013.6 1013.2 +7.5
18 19.03 В 2 10 км 9/0
[Ac trans]
+2.3 +0.8 90 -1 -1 1013.0 1012.6
21 19.03 В 3 10 км 8/0
[Ac trans]
+3.4 +0.9 84 -1 -1 1011.8 1011.4
00 20.03 ЮВ 3 10 км 9/9 600 м
[Sc]
+1.8 +1.1 95 -3 -3 1010.8 1010.4
03 20.03 В 4 500 м туман ?/? +1.6 +1.6 100 -4 -4 1010.4 1010.0 +1.0
06 20.03 В 6 20 км {туман} 9/0
[Ac As]
+4.2 +3.8 97 -1 -1 1009.7 1009.3
09 20.03 В 6
{12}
20 км пыльный позёмок 8/0
[Ac trans Ci fib]
+9.8 +3.4 64 +7 +9 1008.4 1008.0
12 20.03 В 5
{10}
20 км 8/0
[Ac trans Ci fib]
+13.0 +2.9 50 +11 +13 1007.1 1006.8
15 20.03 В 4 20 км 9/0
[Ac As]
+11.7 +3.6 58 +10 +10 1008.0 1007.6 +13.3
18 20.03 С 2 10 км 9/9 600 м
[Sc]
+9.5 +4.8 72 +8 +8 1008.9 1008.5
21 20.03 СВ 2 10 км 9/9 600 м
[Sc]
+8.5 +4.4 75 +7 +7 1008.2 1007.8
00 21.03 СВ 3 10 км 9/9 600 м
[Sc]
+6.4 +2.5 76 +3 +3 1008.4 1008.0
03 21.03 С 3 10 км 9/9 600 м
[Sc]
+4.6 +1.5 80 +1 +1 1008.8 1008.4 +4.6
06 21.03 С 6 20 км 9/9 600 м
[Sc]
+4.0 +0.5 78 -1 -1 1009.3 1008.9 +3.8
09 21.03 С 5 20 км 9/9 600 м
[Sc]
+4.4 +0.1 74 -0 0 1009.5 1009.2
12 21.03 С 5 4000 м слабый дождь 10/10 300 м
[Cu med, cong]
+2.8 +0.9 87 -3 -3 1009.8 1009.4
15 21.03 СЗ 4 4000 м слабый снег {дождь} 10/10 300 м
[Cu med, cong]
+0.1 -0.2 98 -6 -6 1009.8 1009.4 +4.8 3
18 21.03 СЗ 4 4000 м слабый снег 10/10 300 м
[Cu med, cong]
-0.2 -0.4 99 -6 -6 1009.9 1009.5
21 21.03 СЗ 6 4000 м слабый снег 10/10 300 м
[Cu med, cong]
-0.5 -0.7 99 -8 -8 1008.6 1008.2
00 22.03 С 6 10 км {снег} 9/9 300 м
[Sc]
-0.3 -0.6 98 -7 -7 1009.0 1008.6
03 22.03 С 6 20 км {снег} 9/9 300 м
[Sc]
-0.7 -1.0 98 -8 -8 1010.0 1009.6 -0.7 9 11
06 22.03 С 6 20 км {снег} 10/10 300 м
[St]
0.0 -0.6 96 -7 -7 1011.2 1010.9 -0.7
09 22.03 С 6 20 км {снег} 9/9 300 м
[Sc]
+0.3 -0.2 96 -6 -6 1012.3 1011.9
12 22.03 С 6 20 км {снег} 9/9 300 м
[Sc]
+0.4 -0.1 96 -6 -6 1013.6 1013.2
15 22.03 С 5 20 км {снег} 9/9 300 м
[Sc]
+0.2 -0.3 96 -6 -6 1015.5 1015.1 +0.6 0.3
18 22.03 С 4 4000 м слабая морось 10/10 300 м
[St]
+0.2 -0.1 98 -5 -5 1017.2 1016.8
21 22.03 С 2 4000 м слабая морось 10/10 300 м
[St]
+0.2 0.0 99 -4 -4 1018.0 1017.6

 

Местоположение метеостанции Юста (Калмыкия, Россия): широта 47.13 долгота 46.32 высота над уровнем моря 3 м.

В архиве по умолчанию представлена погода в Юсте за последнюю неделю. Архивные данные за месяц целиком и за предыдущие месяцы, начиная с января 2011 года, Вы можете получить, выбрав интересующий диапазон дат из раскрывающегося списка и нажав кнопку "Ввод!".

Внимание! Время в таблицах - всемирное. Для получения местного времени необходимо прибавить поправку, которая в Юсте равна 3 ч.

Смотрите также архив погоды в соседних городах и на ближайших метеорологических станциях:

Погода в Харабали (Астраханская область, Россия) (76 км)
Погода в Утте (Калмыкия, Россия) (88 км)
Погода в Черный Яр (Астраханская область, Россия) (106 км)
Погода в Досанге (Астраханская область, Россия) (124 км)
Погода в Верхнем Баскунчаке (Астраханская область, Россия) (125 км)
Погода в Яшкуле (Калмыкия, Россия) (129 км)
Погода в Кетченерах (Калмыкия, Россия) (134 км)
Погода в Малых Дербетах (Калмыкия, Россия) (151 км)
Погода в Астрахани (Астраханская область, Россия) (158 км)
Погода в Лимане (Астраханская область, Россия) (163 км)

Пояснения к столбцам:

Ветер - указаны скорость ветра в м/с - средняя за 10 мин, порывы в срок и между сроками (в фигурных скобках) и направление, откуда дует ветер: С - северный, СВ - северо-восточный, В - восточный, ЮВ - юго-восточный, Ю - южный, ЮЗ - юго-западный, З - западный, СЗ - северо-западный.
Видимость - горизонтальная дальность видимости в метрах или километрах. При видимости от 1 до 10 км при отсутствии осадков обычно наблюдается дымка, при ухудшении видимости до 1 км и менее - туман. В сухую погоду видимость может ухудшаться дымом, пылью или мглою.
Явления - указаны атмосферные явления, наблюдавшиеся в срок или в последний час перед сроком; фигурными скобками обозначены явления, наблюдавшиеся между сроками (за 1-3 часа до срока); квадратными скобками обозначены град или гололедные отложения с указанием их диаметра в мм.
Облачность - указаны через наклонную черту общая и нижняя облачность в баллах и высота нижней границы облаков в метрах; квадратными скобками обозначены формы облаков: Ci - перистые, Cs - перисто-слоистые, Cc - перисто-кучевые, Ac - высококучевые, As - высокослоистые, Sc - слоисто-кучевые, Ns - слоисто-дождевые, Cu - кучевые, Cb - кучево-дождевые. Подробнее классификацию облаков см. в Атласе облаков (PDF).
T - Температура воздуха - температура, измеренная на высоте 2 м над землей.
Td - Температура точки росы - температура, при понижении до которой содержащийся в воздухе водяной пар достигнет насыщения.
f - Относительная влажность воздуха - влажноcть воздуха, измеренная на высоте 2 м над землей.
Te - Эффективная температура - температура, которую ощущает одетый по сезону человек в тени. Характеристика душности погоды. При расчете учитывается влияние влажности воздуха и скорости ветра на теплоощущения человека.
Tes - Эффективная температура на солнце - температура, которую ощущает человек, с поправкой на солнечный нагрев. Характеристика знойности погоды. Зависит от высоты солнца над горизонтом, облачности и скорости ветра. Ночью, в пасмурную погоду, а также при ветре 12 м/с и более поправка равна нулю.
P - Атмосферное давление - приведенное к уровню моря атмосферное давление.
Po - Атмосферное давление - измеренное на уровне метеостанции атмосферное давление.
Tmin - Минимальная температура - минимум температуры воздуха на высоте 2 м над землей.
Tmax - Максимальная температура - максимум температуры воздуха на высоте 2 м над землей.
R - Количество осадков - Количество выпавших осадков, мм. При наведении курсора мыши на число - период времени, за который выпало указанное количество осадков.
S - Снежный покров - Высота снежного покрова, см. При наведении курсора мыши на число - состояние снежного покрова и степень покрытия местности в баллах.